OpenBCM V1.13 (Linux)

Packet Radio Mailbox

DB0FHN

[JN59NK Nuernberg]

 Login: GUEST





  
CX2SA  > KEPS     29.10.04 06:23l 207 Lines 5446 Bytes #999 (0) @ AMSAT
BID : ORB04302.W
Read: GUEST
Subj: Orbital Elements  04302.WEATHER
Path: DB0FHN<DB0RGB<OK0PPL<DB0RES<ON0AR<TU5EX<CX2SA
Sent: 041029/0416Z @:CX2SA.LAV.URY.SA #:32068 [Minas] FBB7.00e $:ORB04302.W
From: CX2SA@CX2SA.LAV.URY.SA
To  : KEPS@AMSAT


HR AMSAT ORBITAL ELEMENTS FOR WEATHER SATELLITES
FROM WA5QGD FORT WORTH,TX October 28, 2004
SEND SUBSCRIBE/UNSUBSCRIBE TO majordomo@amsat.org ONLY
BID: ORB04302.W
TO ALL RADIO AMATEURS BT

Satellite: NOAA-10
Catalog number: 16969
Epoch time:      04302.42076035
Element set:     445
Inclination:       98.7619 deg
RA of node:       301.6849 deg
Eccentricity:    0.0013413
Arg of perigee:    88.8566 deg
Mean anomaly:     271.4153 deg
Mean motion:   14.27218562 rev/day
Decay rate:       -6.2e-07 rev/day^2
Epoch rev:           94203
Checksum:              304

Satellite: NOAA-11
Catalog number: 19531
Epoch time:      04302.46307985
Element set:     304
Inclination:       98.8611 deg
RA of node:        25.4411 deg
Eccentricity:    0.0010865
Arg of perigee:   244.6462 deg
Mean anomaly:     115.3565 deg
Mean motion:   14.14732787 rev/day
Decay rate:      -1.95e-06 rev/day^2
Epoch rev:           83016
Checksum:              291

Satellite: NOAA-12
Catalog number: 21263
Epoch time:      04302.40117769
Element set:     790
Inclination:       98.6817 deg
RA of node:       288.8199 deg
Eccentricity:    0.0013104
Arg of perigee:    27.4528 deg
Mean anomaly:     332.7344 deg
Mean motion:   14.25421425 rev/day
Decay rate:       1.05e-06 rev/day^2
Epoch rev:           69922
Checksum:              298

Satellite: MET-3/5
Catalog number: 21655
Epoch time:      04301.93704648
Element set:    0714
Inclination:      082.5540 deg
RA of node:       322.7392 deg
Eccentricity:    0.0014417
Arg of perigee:   092.9277 deg
Mean anomaly:     267.3496 deg
Mean motion:   13.16997057 rev/day
Decay rate:        5.1e-07 rev/day^2
Epoch rev:           63474
Checksum:              319

Satellite: MET-2/21
Catalog number: 22782
Epoch time:      04302.49477870
Element set:      41
Inclination:       82.5456 deg
RA of node:        84.7749 deg
Eccentricity:    0.0023417
Arg of perigee:    55.6486 deg
Mean anomaly:     304.6869 deg
Mean motion:   13.83572028 rev/day
Decay rate:        3.5e-07 rev/day^2
Epoch rev:           56353
Checksum:              322

Satellite: OKEAN-4
Catalog number: 23317
Epoch time:      04301.96398654
Element set:    0494
Inclination:      082.5356 deg
RA of node:       113.8847 deg
Eccentricity:    0.0022476
Arg of perigee:   177.2843 deg
Mean anomaly:     182.8498 deg
Mean motion:   14.81920992 rev/day
Decay rate:       8.81e-06 rev/day^2
Epoch rev:           54151
Checksum:              337

Satellite: NOAA-14
Catalog number: 23455
Epoch time:      04302.40182368
Element set:     327
Inclination:       99.1267 deg
RA of node:       340.5625 deg
Eccentricity:    0.0008607
Arg of perigee:   295.1548 deg
Mean anomaly:      64.8730 deg
Mean motion:   14.13499580 rev/day
Decay rate:        8.0e-08 rev/day^2
Epoch rev:           50675
Checksum:              306

Satellite: SICH-1
Catalog number: 23657
Epoch time:      04301.96466292
Element set:    0294
Inclination:      082.5263 deg
RA of node:       254.6775 deg
Eccentricity:    0.0024170
Arg of perigee:   161.7452 deg
Mean anomaly:     198.4635 deg
Mean motion:   14.80952875 rev/day
Decay rate:       7.70e-06 rev/day^2
Epoch rev:           49358
Checksum:              331

Satellite: NOAA-15
Catalog number: 25338
Epoch time:      04302.34650526
Element set:     777
Inclination:       98.5197 deg
RA of node:       311.7151 deg
Eccentricity:    0.0010072
Arg of perigee:   320.6324 deg
Mean anomaly:      39.4139 deg
Mean motion:   14.24460111 rev/day
Decay rate:        9.3e-07 rev/day^2
Epoch rev:           33574
Checksum:              274

Satellite: RESURS
Catalog number: 25394
Epoch time:      04302.76835632
Element set:     934
Inclination:       98.5694 deg
RA of node:        12.2312 deg
Eccentricity:    0.0002493
Arg of perigee:   100.6733 deg
Mean anomaly:     259.4727 deg
Mean motion:   14.24029545 rev/day
Decay rate:        5.1e-07 rev/day^2
Epoch rev:           32751
Checksum:              284

Satellite: FENGYUN1
Catalog number: 25730
Epoch time:      04302.17208452
Element set:     265
Inclination:       98.6057 deg
RA of node:       307.2892 deg
Eccentricity:    0.0015194
Arg of perigee:    44.8514 deg
Mean anomaly:     315.3904 deg
Mean motion:   14.11780241 rev/day
Decay rate:       -9.1e-07 rev/day^2
Epoch rev:           28177
Checksum:              281

Satellite: OKEAN-0
Catalog number: 25860
Epoch time:      04301.94620298
Element set:    0286
Inclination:      097.7849 deg
RA of node:       331.7561 deg
Eccentricity:    0.0000701
Arg of perigee:   104.7340 deg
Mean anomaly:     255.3946 deg
Mean motion:   14.73132951 rev/day
Decay rate:       2.44e-06 rev/day^2
Epoch rev:           28381
Checksum:              294

Satellite: NOAA-16
Catalog number: 26536
Epoch time:      04302.18406857
Element set:      78
Inclination:       98.9792 deg
RA of node:       253.7147 deg
Eccentricity:    0.0010607
Arg of perigee:     7.0436 deg
Mean anomaly:     353.0862 deg
Mean motion:   14.12166373 rev/day
Decay rate:       -1.1e-07 rev/day^2
Epoch rev:           21131
Checksum:              282

Satellite: NOAA-17
Catalog number: 27453
Epoch time:      04302.42656308
Element set:     100
Inclination:       98.6895 deg
RA of node:        13.1626 deg
Eccentricity:    0.0011819
Arg of perigee:    12.4158 deg
Mean anomaly:     347.7298 deg
Mean motion:   14.23585299 rev/day
Decay rate:       1.92e-06 rev/day^2
Epoch rev:           12186
Checksum:              306



Read previous mail | Read next mail


 22.06.2026 03:25:30lGo back Go up